Regional Weather Roundup
Issued by NWS Charleston, WV

Home | Current Version | Previous Version | Text Only | Print | Product List | Glossary Off
Versions: 1 2 3 4 5 6 7 8 9 10 11 12 13 14 15 16 17 18 19 20 21 22 23 24 25 26 27 28 29 30 31 32 33 34 35 36 37 38 39 40 41 42 43 44 45 46 47 48 49 50

944
ASUS41 KRLX 070910
RWRRLX
West Virginia Regional Weather Roundup
National Weather Service Charleston WV
400 AM EST WED DEC 07 2016

Note: "fair" indicates few or no clouds below 12,000 feet with no
significant weather and/or obstructions to visibility.

WVZ003-071000-
Northern Panhandle of West Virginia

CITY           SKY/WX    TMP DP  RH WIND       PRES   REMARKS
WHEELING       CLOUDY    37  32  82 W12       29.98R
$$

WVZ009-071000-
Northwest West Virginia

CITY           SKY/WX    TMP DP  RH WIND       PRES   REMARKS
PARKERSBURG    CLOUDY    39  33  79 W9        30.07R
$$

WVZ006-071000-
Western West Virginia

CITY           SKY/WX    TMP DP  RH WIND       PRES   REMARKS
HUNTINGTON     CLOUDY    39  33  79 N8        30.08R
$$

WVZ015-071000-
West Central West Virginia

CITY           SKY/WX    TMP DP  RH WIND       PRES   REMARKS
CHARLESTON     CLOUDY    42  34  73 W3        30.05R
$$

WVZ022-031-071000-
North Central West Virginia

CITY           SKY/WX    TMP DP  RH WIND       PRES   REMARKS
CLARKSBURG     CLOUDY    38  32  79 SW6       30.01R
MORGANTOWN     CLOUDY    40  32  73 W9        30.00R
$$

WVZ025-035-042-045-071000-
Southern West Virginia

CITY           SKY/WX    TMP DP  RH WIND       PRES   REMARKS
BECKLEY        CLOUDY    38  32  79 NW7       29.99S
LOGAN          CLOUDY    41  36  81 CALM      30.04R
BLUEFIELD      CLOUDY    37  31  78 W8        30.00R
LEWISBURG      CLOUDY    39  34  83 NW5       29.97S
$$

WVZ047-071000-
Northern Mountains of West Virginia

CITY           SKY/WX    TMP DP  RH WIND       PRES   REMARKS
ELKINS         CLOUDY    38  33  82 W10       29.99R
$$

WVZ052-071000-
Eastern Panhandle of West Virginia

CITY           SKY/WX    TMP DP  RH WIND       PRES   REMARKS
MARTINSBURG    CLOUDY    39  37  92 CALM      29.92F
PETERSBURG     MOCLDY    37  37  97 N3        29.95R FOG
$$




USA.gov is the U.S. government's official web portal to all federal, state and local government web resources and services.